Time,TemperatureF,DewpointF,PressureIn,WindDirection,WindDirectionDegrees,WindSpeedMPH,WindSpeedGustMPH,Humidity,HourlyPrecipIn,Conditions,Clouds,dailyrainin,SoftwareType,DateUTC
2013-07-30 00:16:00,71.3,65.0,21.47,SSE,162,0.0,1.0,81,0.00,,,0.00,weatherlink.com 1.10,2013-07-30 02:16:00,
2013-07-30 00:33:00,70.8,64.0,21.47,SSE,162,0.0,0.0,78,0.00,,,0.00,weatherlink.com 1.10,2013-07-30 02:33:00,
2013-07-30 00:49:00,70.5,65.0,21.47,SSE,162,0.0,1.0,82,0.00,,,0.00,weatherlink.com 1.10,2013-07-30 02:49:00,
2013-07-30 01:06:00,69.7,65.0,21.47,SSE,162,0.0,0.0,86,0.00,,,0.00,weatherlink.com 1.10,2013-07-30 03:06:00,
2013-07-30 01:22:00,68.6,65.0,21.47,SSE,161,0.0,1.0,89,0.00,,,0.00,weatherlink.com 1.10,2013-07-30 03:22:00,
2013-07-30 01:38:00,67.6,65.0,21.47,SSE,162,0.0,0.0,91,0.00,,,0.00,weatherlink.com 1.10,2013-07-30 03:38:00,
2013-07-30 01:55:00,66.6,65.0,21.47,SSE,162,0.0,0.0,93,0.00,,,0.00,weatherlink.com 1.10,2013-07-30 03:55:00,
2013-07-30 02:12:00,65.4,64.0,21.47,SSE,162,0.0,1.0,94,0.00,,,0.00,weatherlink.com 1.10,2013-07-30 04:12:00,
2013-07-30 02:28:00,65.3,64.0,21.47,SSE,161,0.0,0.0,95,0.00,,,0.00,weatherlink.com 1.10,2013-07-30 04:28:00,
2013-07-30 02:44:00,65.7,64.0,21.47,South,177,0.0,1.0,94,0.00,,,0.00,weatherlink.com 1.10,2013-07-30 04:44:00,
2013-07-30 03:00:00,65.9,64.0,21.47,South,184,0.0,2.0,93,0.00,,,0.00,weatherlink.com 1.10,2013-07-30 05:00:00,
2013-07-30 03:17:00,65.6,64.0,21.47,South,188,0.0,2.0,93,0.00,,,0.00,weatherlink.com 1.10,2013-07-30 05:17:00,
2013-07-30 03:34:00,65.1,63.0,21.47,South,188,0.0,0.0,94,0.00,,,0.00,weatherlink.com 1.10,2013-07-30 05:34:00,
2013-07-30 03:50:00,64.8,63.0,21.47,South,187,0.0,1.0,95,0.00,,,0.00,weatherlink.com 1.10,2013-07-30 05:50:00,
2013-07-30 04:06:00,64.5,63.0,21.47,South,187,0.0,0.0,95,0.00,,,0.00,weatherlink.com 1.10,2013-07-30 06:06:00,
2013-07-30 04:23:00,64.1,63.0,21.47,South,187,0.0,0.0,96,0.00,,,0.00,weatherlink.com 1.10,2013-07-30 06:23:00,
2013-07-30 04:39:00,64.1,63.0,21.47,South,188,0.0,0.0,96,0.00,,,0.00,weatherlink.com 1.10,2013-07-30 06:39:00,
2013-07-30 04:55:00,64.5,63.0,21.47,South,188,0.0,1.0,96,0.00,,,0.00,weatherlink.com 1.10,2013-07-30 06:55:00,
2013-07-30 05:11:00,64.5,63.0,21.47,South,187,0.0,2.0,96,0.00,,,0.00,weatherlink.com 1.10,2013-07-30 07:11:00,
2013-07-30 05:28:00,64.8,64.0,21.47,South,187,0.0,0.0,96,0.00,,,0.00,weatherlink.com 1.10,2013-07-30 07:28:00,
2013-07-30 05:44:00,64.9,63.0,21.47,South,188,0.0,0.0,95,0.00,,,0.00,weatherlink.com 1.10,2013-07-30 07:44:00,
2013-07-30 06:00:00,64.9,63.0,21.47,South,187,0.0,1.0,95,0.00,,,0.00,weatherlink.com 1.10,2013-07-30 08:00:00,
2013-07-30 06:17:00,64.9,63.0,21.47,South,187,0.0,1.0,95,0.00,,,0.00,weatherlink.com 1.10,2013-07-30 08:17:00,
2013-07-30 06:33:00,64.9,63.0,21.47,South,187,0.0,0.0,95,0.00,,,0.00,weatherlink.com 1.10,2013-07-30 08:33:00,
2013-07-30 06:49:00,64.8,63.0,21.47,South,188,0.0,1.0,95,0.00,,,0.00,weatherlink.com 1.10,2013-07-30 08:49:00,
2013-07-30 07:05:00,64.7,63.0,21.47,South,187,0.0,3.0,95,0.00,,,0.00,weatherlink.com 1.10,2013-07-30 09:05:00,
2013-07-30 07:22:00,64.4,63.0,21.47,South,188,2.0,3.0,95,0.00,,,0.00,weatherlink.com 1.10,2013-07-30 09:22:00,
2013-07-30 07:38:00,64.3,63.0,21.47,South,188,0.0,0.0,95,0.00,,,0.00,weatherlink.com 1.10,2013-07-30 09:38:00,
2013-07-30 07:54:00,64.2,63.0,21.47,South,187,0.0,0.0,95,0.00,,,0.00,weatherlink.com 1.10,2013-07-30 09:54:00,
2013-07-30 08:10:00,63.8,63.0,21.47,South,188,0.0,0.0,96,0.00,,,0.00,weatherlink.com 1.10,2013-07-30 10:10:00,
2013-07-30 08:27:00,63.6,62.0,21.47,South,188,0.0,2.0,96,0.00,,,0.00,weatherlink.com 1.10,2013-07-30 10:27:00,
2013-07-30 08:43:00,63.7,63.0,21.47,South,189,0.0,3.0,96,0.00,,,0.00,weatherlink.com 1.10,2013-07-30 10:43:00,
2013-07-30 08:59:00,63.7,63.0,21.47,South,189,0.0,1.0,96,0.00,,,0.00,weatherlink.com 1.10,2013-07-30 10:59:00,
2013-07-30 09:16:00,63.7,63.0,21.47,South,188,0.0,0.0,96,0.00,,,0.00,weatherlink.com 1.10,2013-07-30 11:16:00,
2013-07-30 09:32:00,63.8,63.0,21.47,South,189,0.0,1.0,96,0.00,,,0.00,weatherlink.com 1.10,2013-07-30 11:32:00,
2013-07-30 09:48:00,64.0,63.0,21.47,SW,218,0.0,0.0,97,0.00,,,0.00,weatherlink.com 1.10,2013-07-30 11:48:00,
2013-07-30 10:05:00,64.8,64.0,21.47,ESE,111,0.0,1.0,96,0.00,,,0.00,weatherlink.com 1.10,2013-07-30 12:05:00,
2013-07-30 10:21:00,65.8,64.0,21.47,ESE,111,0.0,0.0,95,0.00,,,0.00,weatherlink.com 1.10,2013-07-30 12:21:00,
2013-07-30 10:37:00,66.6,65.0,21.47,ESE,111,0.0,1.0,94,0.00,,,0.00,weatherlink.com 1.10,2013-07-30 12:37:00,
2013-07-30 10:53:00,67.5,66.0,21.47,SE,126,0.0,0.0,94,0.00,,,0.00,weatherlink.com 1.10,2013-07-30 12:53:00,
2013-07-30 11:10:00,68.3,66.0,21.47,ESE,121,0.0,0.0,93,0.00,,,0.00,weatherlink.com 1.10,2013-07-30 13:10:00,
2013-07-30 11:26:00,68.8,65.0,21.47,ESE,121,0.0,1.0,88,0.00,,,0.00,weatherlink.com 1.10,2013-07-30 13:26:00,
2013-07-30 11:43:00,70.5,65.0,21.47,SE,133,0.0,1.0,84,0.00,,,0.00,weatherlink.com 1.10,2013-07-30 13:43:00,
2013-07-30 11:59:00,72.1,64.0,21.47,ENE,78,0.0,5.0,76,0.00,,,0.00,weatherlink.com 1.10,2013-07-30 13:59:00,
2013-07-30 12:15:00,72.8,65.0,21.47,ENE,76,0.0,3.0,76,0.00,,,0.00,weatherlink.com 1.10,2013-07-30 14:15:00,
2013-07-30 12:32:00,73.1,64.0,21.47,East,86,0.0,1.0,73,0.00,,,0.00,weatherlink.com 1.10,2013-07-30 14:32:00,
2013-07-30 12:48:00,73.4,63.0,21.47,SE,141,0.0,3.0,71,0.00,,,0.00,weatherlink.com 1.10,2013-07-30 14:48:00,
2013-07-30 13:05:00,73.9,64.0,21.47,SE,144,3.0,4.0,72,0.00,,,0.00,weatherlink.com 1.10,2013-07-30 15:05:00,
2013-07-30 13:37:00,75.4,64.0,21.47,East,79,3.0,7.0,68,0.00,,,0.00,weatherlink.com 1.10,2013-07-30 15:37:00,
2013-07-30 13:54:00,74.7,63.0,21.47,SE,125,0.0,5.0,67,0.00,,,0.00,weatherlink.com 1.10,2013-07-30 15:54:00,
2013-07-30 14:10:00,74.8,65.0,21.47,SSE,161,1.0,2.0,72,0.00,,,0.00,weatherlink.com 1.10,2013-07-30 16:10:00,
2013-07-30 14:27:00,76.2,65.0,21.47,SE,138,4.0,4.0,68,0.00,,,0.00,weatherlink.com 1.10,2013-07-30 16:27:00,
2013-07-30 14:43:00,76.3,65.0,21.47,East,84,2.0,6.0,68,0.00,,,0.00,weatherlink.com 1.10,2013-07-30 16:43:00,
2013-07-30 14:59:00,76.5,64.0,21.47,ENE,72,0.0,5.0,65,0.00,,,0.00,weatherlink.com 1.10,2013-07-30 16:59:00,
2013-07-30 15:16:00,77.0,65.0,21.47,South,191,0.0,5.0,67,0.00,,,0.00,weatherlink.com 1.10,2013-07-30 17:16:00,
2013-07-30 15:32:00,77.6,66.0,21.47,NE,34,3.0,4.0,68,0.00,,,0.00,weatherlink.com 1.10,2013-07-30 17:32:00,
2013-07-30 15:49:00,77.9,65.0,21.47,SE,140,0.0,3.0,64,0.00,,,0.00,weatherlink.com 1.10,2013-07-30 17:49:00,
2013-07-30 16:05:00,78.1,67.0,21.47,West,273,4.0,4.0,68,0.00,,,0.00,weatherlink.com 1.10,2013-07-30 18:05:00,
2013-07-30 16:21:00,78.8,67.0,21.47,SSW,203,0.0,5.0,68,0.00,,,0.00,weatherlink.com 1.10,2013-07-30 18:21:00,
2013-07-30 16:38:00,78.9,67.0,21.47,SSW,200,0.0,1.0,68,0.00,,,0.00,weatherlink.com 1.10,2013-07-30 18:38:00,
2013-07-30 16:54:00,79.6,67.0,21.47,SW,222,0.0,3.0,66,0.00,,,0.00,weatherlink.com 1.10,2013-07-30 18:54:00,
2013-07-30 17:10:00,80.0,70.0,21.47,SE,140,3.0,4.0,72,0.00,,,0.00,weatherlink.com 1.10,2013-07-30 19:10:00,
2013-07-30 17:43:00,80.1,68.0,21.47,SSW,200,0.0,7.0,66,0.00,,,0.00,weatherlink.com 1.10,2013-07-30 19:43:00,
2013-07-30 17:59:00,79.8,68.0,21.47,WNW,283,0.0,5.0,68,0.00,,,0.00,weatherlink.com 1.10,2013-07-30 19:59:00,
2013-07-30 18:16:00,81.0,69.0,21.47,SW,232,0.0,4.0,67,0.00,,,0.00,weatherlink.com 1.10,2013-07-30 20:16:00,
2013-07-30 18:32:00,80.9,68.0,21.47,SW,232,0.0,1.0,66,0.00,,,0.00,weatherlink.com 1.10,2013-07-30 20:32:00,
2013-07-30 18:48:00,79.6,69.0,21.47,SSW,200,2.0,4.0,69,0.00,,,0.00,weatherlink.com 1.10,2013-07-30 20:48:00,
2013-07-30 19:05:00,80.0,68.0,21.47,SSW,200,0.0,1.0,67,0.00,,,0.00,weatherlink.com 1.10,2013-07-30 21:05:00,
2013-07-30 19:21:00,79.9,70.0,21.47,SSW,199,0.0,3.0,71,0.00,,,0.00,weatherlink.com 1.10,2013-07-30 21:21:00,
2013-07-30 19:37:00,79.3,69.0,21.47,SSW,199,0.0,4.0,71,0.00,,,0.00,weatherlink.com 1.10,2013-07-30 21:37:00,
2013-07-30 19:54:00,79.3,70.0,21.47,SSW,199,0.0,1.0,73,0.00,,,0.00,weatherlink.com 1.10,2013-07-30 21:54:00,
2013-07-30 20:10:00,79.0,69.0,21.47,SSW,199,0.0,1.0,71,0.00,,,0.00,weatherlink.com 1.10,2013-07-30 22:10:00,
2013-07-30 20:26:00,78.9,70.0,21.47,SSW,199,1.0,3.0,74,0.00,,,0.00,weatherlink.com 1.10,2013-07-30 22:26:00,
2013-07-30 20:43:00,78.7,69.0,21.47,SSW,199,0.0,1.0,72,0.00,,,0.00,weatherlink.com 1.10,2013-07-30 22:43:00,
2013-07-30 20:59:00,78.2,70.0,0.00,SSW,199,0.0,1.0,76,0.00,,,0.00,weatherlink.com 1.10,2013-07-30 22:59:00,
2013-07-30 21:15:00,77.9,71.0,0.00,SSW,199,0.0,0.0,80,0.00,,,0.00,weatherlink.com 1.10,2013-07-30 23:15:00,
2013-07-30 21:31:00,77.3,71.0,0.00,SSW,199,0.0,0.0,80,0.00,,,0.00,weatherlink.com 1.10,2013-07-30 23:31:00,
2013-07-30 21:48:00,76.4,70.0,0.00,SSW,199,0.0,0.0,82,0.00,,,0.00,weatherlink.com 1.10,2013-07-30 23:48:00,
2013-07-30 22:04:00,75.9,71.0,0.00,SSW,199,0.0,0.0,86,0.00,,,0.00,weatherlink.com 1.10,2013-07-31 00:04:00,
2013-07-30 22:21:00,74.8,71.0,0.00,SSW,199,0.0,1.0,89,0.00,,,0.00,weatherlink.com 1.10,2013-07-31 00:21:00,
2013-07-30 22:37:00,74.1,72.0,0.00,SSW,199,0.0,0.0,92,0.00,,,0.00,weatherlink.com 1.10,2013-07-31 00:37:00,
2013-07-30 22:53:00,73.8,72.0,0.00,SSW,199,0.0,0.0,93,0.00,,,0.00,weatherlink.com 1.10,2013-07-31 00:53:00,
2013-07-30 23:09:00,73.0,71.0,0.00,SSW,199,0.0,0.0,93,0.00,,,0.00,weatherlink.com 1.10,2013-07-31 01:09:00,
2013-07-30 23:26:00,72.6,71.0,0.00,SSW,199,0.0,0.0,94,0.00,,,0.00,weatherlink.com 1.10,2013-07-31 01:26:00,
2013-07-30 23:42:00,72.1,71.0,0.00,SSW,199,0.0,0.0,95,0.00,,,0.00,weatherlink.com 1.10,2013-07-31 01:42:00,
2013-07-30 23:58:00,72.2,71.0,0.00,SSW,199,0.0,1.0,96,0.00,,,0.00,weatherlink.com 1.10,2013-07-31 01:58:00,